Rbgn^[z[y[W
メイン
   新天体発見情報
     Comet P/2019 S2 (PANSTARRS)
投稿するにはまず登録を

スレッド表示 | 新しいものから 前のトピック | 次のトピック | 下へ
投稿者 スレッド
佐藤裕久
投稿日時: 2019-10-23 16:28
モデレータ
登録日: 2005-6-12
居住地: 日本
投稿: 2020
オンライン
Comet P/2019 S2 (PANSTARRS)

R. WainscoatとR. Werykは、9月28.4日UT、ハワイ HaleakalaにあるPan-STARRS1 1.8-m 
Ritchey-Chretien望遠鏡で得た4枚のw-バンド画像から少し拡散した彗星を発見した。
発見した各画像には西に約5"伸びたかすかな尾が見える。
Werykが、7月10.6日に得た露出から彗星を確認した追加のPan-STARRS1イメージは、1".0の
シーイングでp.a. 255°に向かって少なくとも30"の尾が伸びており、8月7.6日は、1".2の
シーイングでp.a. 260°に向かって少なくとも30"の尾が伸びていた。
小惑星センターのPCCP webpageに公表後、Spacewatchの観測者はこの彗星の外観について
コメントした。J. V. Scottiが、9月30.3日UT、3".0のシーイングで、Kitt Peakの1.8-m f/2.7 
望遠鏡で得た画像では、非常に拡散した核状の集光と0'.16のコマがあり、p.a. 270°に0'.35
尾が伸びている。彼が10月1.20日〜1.26日に得た2".9のシーイングのフォローアップ観測では、
0'.15のコマとp.a. 269°に0'.52の尾が見えた。

発見位置は次のとおり、

     2019 UT             R.A. (2000) Decl.       Mag.
     July 10.57075   23 14 00.00   -16 34 12.9   21.8
          10.58154   23 14 00.03   -16 34 15.0   21.7
          10.59231   23 14 00.04   -16 34 17.5   21.6
          10.60310   23 14 00.08   -16 34 19.4   21.6
     Aug.  7.55146   23 09 26.87   -18 36 32.6   21.8
           7.56772   23 09 26.43   -18 36 37.7   21.4
           7.57801   23 09 26.21   -18 36 40.7   21.5
           7.58828   23 09 26.00   -18 36 43.6   21.5
     Sept.28.37426   22 42 43.05   -21 51 49.0   21.6
          28.39733   22 42 42.48   -21 51 50.3   21.6
          28.40887   22 42 42.13   -21 51 50.8   21.9

MPCの楕円軌道要素と位置推算表は次のとおり、

Orbital elements:
    P/2019 S2 (PANSTARRS)                                                       
Epoch 2019 Feb. 6.0 TT = JDT 2458520.5                                          
T 2019 Feb. 20.25584 TT                                 Veres                   
q   3.7548341            (2000.0)            P               Q                  
n   0.09567505     Peri.  216.65390     +0.62990109     +0.75516942             
a   4.7344578      Node    93.12538     -0.66243109     +0.64437341             
e   0.2069136      Incl.   10.47314     -0.40547462     +0.12042447             
P  10.3                                                                         
From 29 observations 2019 July 10-Oct. 4, mean residual 0".5.                   
                                                                                
    P/2019 S2 (PANSTARRS)                                                       
Epoch 2029 July 3.0 TT = JDT 2462320.5                                          
T 2029 June 19.27035 TT                                 Veres                   
q   3.7742751            (2000.0)            P               Q                  
n   0.09512440     Peri.  216.85151     +0.63249919     +0.75304684             
a   4.7527113      Node    93.12339     -0.66027556     +0.64656270             
e   0.2058690      Incl.   10.46049     -0.40494564     +0.12197184             
P  10.4                                                                         
From 29 observations 2019 July 10-Oct. 4.                                       
                                                                                
    P/2019 S2 (PANSTARRS)                                                       
Epoch 2019 Apr. 27.0 TT = JDT 2458600.5                                         
T 2019 Feb. 20.38865 TT                                 Veres                   
q   3.7548506            (2000.0)            P               Q                  
n   0.09568444     Peri.  216.67385     +0.63016275     +0.75495117             
a   4.7341479      Node    93.12528     -0.66220773     +0.64460276             
e   0.2068582      Incl.   10.47312     -0.40543289     +0.12056539             
P  10.3                                                                         
From 29 observations 2019 July 10-Oct. 4, mean residual 0".5.                   
                                                                                
Ephemeris:
Date    TT    R. A. (2000) Decl.     Delta      r    Elong.  Phase   m1
2019 09 04    22 55 33.8 -20 47 53   2.8471  3.8355   166.6     3.5  21.6
...
2019 09 19    22 47 11.0 -21 35 49   2.9088  3.8479   155.9     6.1  21.7
...
2019 09 27    22 43 18.9 -21 50 10   2.9660  3.8549   148.3     7.9  21.7
...
2019 10 03    22 40 52.8 -21 55 19   3.0192  3.8603   142.3     9.1  21.8
2019 10 04    22 40 31.1 -21 55 43   3.0288  3.8612   141.4     9.3  21.8
2019 10 05    22 40 10.4 -21 55 58   3.0387  3.8621   140.4     9.5  21.8
...
2019 10 11    22 38 24.0 -21 54 42   3.1023  3.8676   134.4    10.6  21.8
...
2019 10 19    22 36 54.3 -21 45 52   3.1976  3.8752   126.6    11.9  21.9
...
2019 11 03    22 36 56.4 -21 09 14   3.4023  3.8899   112.4    13.6  22.1

   This object was reported as cometary based on Pan-STARRS 1 (F51) discovery
images on Sept. 28 UTC by R. Wainscoat and R. Weryk. The object appeared 
slightly diffuse in four w-band images, with a tail extending to the west for
about 5 arcseconds. Further confirmation is mentioned in table below:

OC  Date     Observer(s)     Coma              Tail                 Exp.
F51 20190929 R. Weryk        1".6              tail toward West
291 20190930 R. S. McMillan  9".6, diffuse     21", P.A. 270       4 x 120s
Q62 20190930 H. Sato         10", condensed    20", P.A. 275       24 x 60s
807 20190930 R. Holmes       3"                15"                 20 x 30s
291 20191001 R. S. McMillan  9"                31".2, P.A. 269     5 x 120s
691 20191004 R. S. McMillan                    20", P.A. 270       2 x 240s

(CBET 4673、MPEC 2019-T80)

スレッド表示 | 新しいものから 前のトピック | 次のトピック | トップ

投稿するにはまず登録を
 
© 1999 Tsutomu Seki.